1st Responders/1st Detectors/Storm Spotters Weather Summary for Bourbon County, KY

Forecast Maps


Reg. NEXRAD Animation


National Fire Danger: Day 1 & 2 Map

Current NWS Watch/Warnings

SPC Convective Day 1 Outlook


Day 2 Outlook

(Click images to enlarge|Page will refresh every 5 minutes)
UK Ag. Weather Center Desktop Severe Weather Service[HERE]
Bourbon County, KY Hazardous Weather Outlook Webcast
(9 AM to 9 PM Mon-Fri)
[Fast]
[Dial-up]


UKAWC 1st Detectors/1st Responders Precision Weather Forecast For BOURBON County, Kentucky
(based on the NWS County Digital Forecast)

ISSUED AT 03:00 UTC ON FRIDAY OCT 20 2017
DAY FRIDAY
EDT 3HR MIDN 1A 2A 3A 4A 5A 6A 7A 8A 9A 10A 11A NOON 1P 2P 3P 4P 5P 6P 7P
MAX/MIN -- -- -- -- -- -- -- -- 45° -- -- -- -- -- -- -- -- -- -- 74°
TEMP 54° 52° 52° 50° 49° 47° 45° 45° 45° 50° 58° 63° 67° 70° 72° 74° 74° 74° 70° 67°
SKY COVER 1% 1% 1% 2% 3% 3% 8% 12% 15% 14% 8% 3% 2% 1% 1% 4% 10% 13% 10% 5%
Clouds
DEW PT 47° 47° 47° 47° 47° 45° 45° 45° 45° 47° 49° 52° 52° 54° 54° 54° 54° 54° 56° 54°
RH 80% 83% 85% 85% 92% 92% 99% 99% 96% 88% 74% 64% 59% 56% 52% 51% 49% 51% 59% 64%
POP 12HR -- -- -- -- -- -- -- -- 0% -- -- -- -- -- -- -- -- -- -- --
RAIN/SNOW (liq.equ) -- -- 0.00in -- -- -- -- -- 0.00in -- -- -- -- -- 0.00in -- -- -- -- --
SNOWFALL -- -- 0in -- -- -- -- -- 0in -- -- -- -- -- 0in -- -- -- -- --
WIND SPEED(MPH) 5 5 2 2 2 2 2 2 1 1 1 1 1 2 2 2 2 5 2 5
WIND Gust(MPH) 5 5 2 2 2 2 2 2 1 1 1 1 1 2 2 2 2 5 2 5
WIND DIR SW SW SW SW SW S S S S S S S S SE SE SE SE SE SE SE
DEW -- Lgt Dew Mod Dew Mod Dew Mod Dew Mod Dew Mod Dew Mod Dew Mod Dew Mod Dew Lgt Dew -- -- -- -- -- -- -- -- --
HeatIndex 54 52 52 50 49 47 45 43 45 50 58 63 67 70 72 74 74 74 70 67
Rain Showers -- -- -- -- -- -- -- -- -- -- -- -- -- -- -- -- -- -- -- --
Thunder Storm -- -- -- -- -- -- -- -- -- -- -- -- -- -- -- -- -- -- -- --
Fog -- -- -- -- -- -- -- Patchy Patchy Patchy -- -- -- -- -- -- -- -- -- --
WIND CHILL -- -- -- -- -- -- -- -- -- -- -- -- -- -- -- -- -- -- -- --
SPRAY COND
DRY COND
LIVESTOCK COLDSTRESS
LIVESTOCK HEATSTRESS 54.53 52.64 52.56 50.73 49.43 47.52 45.08 45.08 45.30 50.58 58.11 62.17 65.15 67.29 68.52 69.90 69.74 69.90 67.47 65.38



DAY SATURDAY SUNDAY MONDAY TUESDAY WEDNESDAY THURSDAY
EDT 6HR 8P 9P 10P 11P MIDN 1A 2A 3A 4A 5A 6A 7A 8A 9A 10A 11A 2P 5P 8P 11P 2A 5A 8A 11A 2P 5P 8P 2A 8A 2P 8P 2A 8A 2P 8P 2A 8A 2P 8P 2A 8A 2P 8P
MAX/MIN -- -- -- -- -- -- -- -- -- -- -- -- 49° -- -- -- -- 76° -- -- -- -- 52° -- -- 76° -- -- 56° 72° -- -- 52° 63° -- -- 40° 54° -- -- 38° 58° --
TEMP 63° 59° 58° 56° 56° 54° 54° 52° 52° 50° 49° 49° 49° 54° 58° 65° 74° 74° 65° 59° 56° 52° 52° 65° 74° 74° 67° 61° 58° 72° 65° 59° 52° 63° 54° 45° 40° 54° 47° 40° 40° 58° 49°
SKY COVER 3% 3% 4% 4% 8% 13% 19% 19% 20% 20% 21% 24% 26% 21% 13% 8% 21% 22% 29% 30% 34% 36% 48% 34% 40% 58% 54% 79% 83% 91% 87% 85% 62% 58% 56% 50% 57% 59% 41% 47% 41% 37% 27%
Clouds
DEW PT 54° 54° 52° 52° 50° 49° 49° 47° 47° 47° 45° 45° 45° 47° 50° 52° 50° 50° 49° 49° 47° 47° 47° 52° 56° 56° 56° 56° 56° 59° 59° 56° 50° 49° 43° 38° 36° 36° 36° 34° 34° 38° 38°
RH 74% 80% 83% 83% 83% 83% 83% 83% 86% 85% 86% 89% 86% 80% 74% 65% 44% 42% 58% 66% 74% 80% 82% 63% 51% 53% 67% 83% 92% 65% 81% 90% 93% 58% 66% 78% 82% 50% 65% 81% 82% 49% 68%
POP 12HR 0% -- -- -- -- -- -- -- -- -- -- -- 2% -- -- -- -- -- 2% -- -- -- 2% -- -- -- 17% -- 47% -- 63% -- 63% -- 35% -- 20% -- 33% -- 4% -- 25%
RAIN/SNOW (liq.equ) 0.00in -- -- -- -- -- 0.00in -- -- -- -- -- 0.00in -- -- -- 0.00in -- 0.00in -- 0.00in -- 0.00in -- 0.00in -- 0.03in -- -- -- -- -- -- -- -- -- -- -- -- -- -- -- --
SNOWFALL 0in -- -- -- -- -- 0in -- -- -- -- -- 0in -- -- -- 0in -- 0in -- 0in -- 0in -- 0in -- 0in -- -- -- -- -- -- -- -- -- -- -- -- -- -- -- --
WIND SPEED(MPH) 5 5 5 5 5 2 2 2 2 2 2 2 2 5 5 6 7 7 5 5 6 6 7 9 10 8 7 7 6 7 7 6 7 13 9 6 7 9 6 2 6 7 7
WIND DIR SE SE SE SE SE SE SE SE SE SE SE S S S S S S S S S S S S S S S S S S S SE S SW W W W W W W SW SW W SW
HeatIndex 63 59 58 56 56 54 54 52 52 50 49 49 49 54 58 65 74 74 65 59 56 52 52 65 74 74 67 61 58 72 65 59 52 63 54 41 36 54 47 37 35 58 49
Rain Showers -- -- -- -- -- -- -- -- -- -- -- -- -- -- -- -- -- -- -- -- -- -- -- -- Slight Chance Slight Chance -- Chance Chance Likely Likely Likely Chance Slight Chance Slight Chance Slight Chance Chance Slight Chance -- -- Chance Slight Chance --
Thunder Storm -- -- -- -- -- -- -- -- -- -- -- -- -- -- -- -- -- -- -- -- -- -- -- -- -- -- -- -- -- Slight Chance -- -- -- -- -- -- -- -- -- -- -- -- --
Fog -- -- -- -- -- -- -- -- -- -- -- -- -- -- -- -- -- -- -- -- -- -- -- -- -- -- -- -- -- -- -- -- -- -- -- -- -- -- -- -- -- -- --
WIND CHILL -- -- -- -- -- -- -- -- -- -- -- -- -- -- -- -- -- -- -- -- -- -- -- -- -- -- -- -- -- -- -- -- -- -- -- 42° 35° -- -- -- 36° -- --
SPRAY COND
DRY COND
LIVESTOCK COLDSTRESS
LIVESTOCK HEATSTRESS 62.40 58.98 58.07 56.26 56.26 54.45 54.45 52.64 52.52 50.73 49.75 49.59 49.75 54.53 58.11 63.81 69.32 69.15 63.57 58.96 56.40 52.75 52.67 63.74 69.90 70.07 65.51 60.79 58.04 69.46 64.35 58.99 52.26 62.03 54.90 46.67 41.86 55.32 49.27 41.96 41.86 58.22 50.72

Click on individual weather variable above in left-hand column (ie., TEMP, RH, QPF 12HR) to view state forecast maps






NWS 48 Hr. Forecast Maps,

Regional Hourly Observations For BOURBON County, Kentucky
Issued at 1100 PM EDT THU OCT 19 2017
NORTHEAST KENTUCKY
  
CITY           SKY/WX    TMP DP  RH WIND       PRES   REMARKS
LEXINGTON      CLEAR     52  47  83 S6        30.26R                  
COVINGTON      MOCLDY    56  52  86 SW6       30.23S                  
FRANKFORT      CLEAR     52  47  83 CALM      30.24R                  


Current NOWCAST not available:
Nowcasts are not issued routinely during fair weather. Only when
precipitation or other significant weather is occuring in this county will these
forecasts be issued. Currently, there is no short term forecast in effect.


Fire Weather Forecast For BOURBON County, KY
Provided by the National Weather Service:

Issued at: Thu Oct 19 23:05:01 EDT 2017


                      Tonight      Fri          Fri Night    Sat          

CLOUD COVER           Clear        MClear       MClear       MClear       
PRECIP TYPE           NONE         NONE         NONE         NONE         
CHANCE PRECIP (%)     0            0            0            0            
TEMP (24H TREND)      45 (+2)      75 (+2)      49           76           
RH % (24H TREND)      100 (+5)     45 (+2)      88           39           
20FTWND-VAL/AM(MPH)                Lgt/Var                   Lgt/Var      
20FTWND-RDG/PM(MPH)   Lgt/Var      Lgt/Var      Lgt/Var      S  6         
PRECIP AMOUNT         0.00         0.00         0.00         0.00         
MIXING HGT(FT-AGL/MSL)             4300                      4190         
TRANSPORT WND (MPH)                SE  5                     S 15         
VENT RATE (KT-FT)                  20750                     53928        
DISPERSION                         Poor                      Good         
DSI                   STBL         STBL         STBL         STBL         
LAL                   1            1            1            1            
HAINES INDEX          5            5            5            5            
ADI EARLY             3 VERY POOR  4 VERY POOR  2 VERY POOR  13 GEN POOR  
ADI LATE              2 VERY POOR  20 GEN POOR  2 VERY POOR  54 GEN GOOD  
MAX LVORI EARLY       5            8            5            6            
MAX LVORI LATE        8            2            6            2            

REMARKS...ADI IS ATMOSPHERIC DISPERSION INDEX BY LAVDAS.        
LVORI IS LOW VISIBILITY OCCURRENCE RISK INDEX.

.SUNDAY...Partly cloudy. A 20 percent chance of rain showers.
Lows in the mid 50s. Highs in the upper 70s. South winds around
5 mph. 
.MONDAY...Mostly cloudy with rain showers likely. Lows in the
upper 50s. Highs in the lower 70s. Southeast winds 5 to 10 mph. 
.TUESDAY...Mostly cloudy. Rain showers likely. Lows in the lower
50s. Highs in the lower 60s. West winds 5 to 10 mph. 
.WEDNESDAY...Mostly cloudy. A 30 percent chance of rain showers.
Lows in the lower 40s. Highs in the mid 50s. West winds 5 to
10 mph. 
.THURSDAY...Partly cloudy. Lows in the upper 30s. Highs in the
upper 50s. West winds around 5 mph. 

SPC's Fire Weather Web Tool (Excellent!), SPC's Fire Weather Outlooks, NWS Fire Weather WEB, Fire Danger Class Map,
Keetch-Byram Drought Index, ROMAN Web, Haines Index ,
WFAS's 10-hr Dead Fuel Moist., WFAS's 100-hr Dead Fuel Moist., Probablity of Ignition, Visual blackness Map, Palmer Drought Index, HPC's Rainfall Forecast Maps


Hazardous Weather Outlook For BOURBON County, Kentucky
302 PM EDT Thu Oct 19 2017 /202 PM CDT Thu Oct 19 2017/

 DAY ONE  Tonight.

No hazardous weather is expected at this time.

 DAYS TWO THROUGH SEVEN  Friday through Wednesday.

Showers and thunderstorms will be possible Sunday and Monday as a
cold front moves through the region. Gusty winds will be possible,
but organized severe weather is not expected at this time. 

 SPOTTER INFORMATION STATEMENT  

Spotter activation is not needed at this time. 

Latest BOURBON County, Kentucky Watches, Warnings and Advisories.
Additional Drought Info.: UKAWC Drought Page, Kentucky Drought Watch


7-Day Forecast For BOURBON County, KY

TONIGHT
Clear. Lows in the mid 40s. Southwest winds up to 5 mph.

FRIDAY
Mostly sunny. Highs in the mid 70s. South winds up to 5 mph.

FRIDAY NIGHT
Mostly clear. Lows in the upper 40s. Southeast winds around 5 mph.

SATURDAY
Mostly sunny. Highs in the mid 70s. South winds 5 to 10 mph.

SATURDAY NIGHT
Partly cloudy. Lows in the lower 50s. South winds around 5 mph.

SUNDAY
Partly cloudy with a 20 percent chance of showers. Highs in the upper 70s.

SUNDAY NIGHT
Partly cloudy with a 50 percent chance of showers. Lows in the upper 50s.

MONDAY
Showers likely and slight chance of thunderstorms. Highs in the lower 70s. Chance of precipitation 60 percent.

MONDAY NIGHT
Showers likely. Lows in the lower 50s. Chance of showers 70 percent.

TUESDAY
Partly cloudy with a 40 percent chance of showers. Highs in the mid 60s.

TUESDAY NIGHT
Partly cloudy with a 20 percent chance of showers. Lows around 40.

WEDNESDAY
Partly cloudy with a 30 percent chance of showers. Highs in the mid 50s.

WEDNESDAY NIGHT
Partly cloudy. Lows in the upper 30s.

THURSDAY
Partly cloudy with a 30 percent chance of rain showers. Highs in the upper 50s.

Ag Weather Center, Department of Biosystems & Agricultural Engineering, University of Kentucky